Showing default

YAOGAN 20B, 40110

Orbit data source: Space-Track

YAOGAN 20B, 40110 is a payload satellite owned by PLA GAD (CN) in LEO that was launched on Sat, 09 Aug 2014 UTC via a CHANG ZHENG 4C launch vehicle from the Jiuquan Satellite Launch Center, China (JSC). Payload-class satellites include a variety of spacecraft equipped with specific instruments for various scientific and technological missions. These include communications satellites like Starlink; space stations such as the ISS; scientific satellites like the Hubble; Earth observation satellites from companies like Planet Labs, Umbra, and HawkEye 360; GPS; miniature CubeSats for education and research; and military/defense satellites.

Loading next visibility...
Identifier
40110, 2014-047B
Orbit
LEO
Country
Flag of CNCN / PRC
Related business
Manufacturer
CAST
Mission
Operational Defense Sigint
Bus & Motor
Unknown
Mass
~500 kg wet, ~500 kg dry
Launch date (UTC)
2014-08-09 (11 years ago)
Launch vehicle
CHANG ZHENG 4C
Launch site
Jiuquan Satellite Launch Center, China (JSC)
Object type
Payload
Rocket body
Debris
Shape & HBR
Box + 2 Pan, 0.5 m
Radar Cross Section
0.446 m², Large (>1 m²)

Expand to show TLE details & history
Last TLE update: 11 hours ago

TLE from 11 hours ago
0 YAOGAN 20B
1 40110U 14047B   25257.61296340 -.00000071  00000-0  21839-4 0  9990
2 40110  63.3838  10.3600 0365726  13.2658 347.7676 13.45397957545202
Epoch: 2025-09-14T14:42Z
TLE epoch observation values (Epoch: 2025-09-14T14:42:40.037Z)
Latitude
0.00001°
Longitude
155.86372°
Altitude
824.552 km
Speed
7.573 km/s
True Right ascension
00h 41m 26s
True Declination
0° 00' 00"
Sunlit
Object was in full shadow at epoch
Visualization orbit readout
Latitude
Unknown
Longitude
Unknown
Altitude
Unknown
Speed
Unknown
Apparent Right ascension
Unknown
Apparent Declination
Unknown
Sunlit
N/A
Visualization observer readout
Local Sidereal Time
18:45:35
Azimuth
Unknown
Elevation
Unknown
Doppler factor
Unknown
Orbital elements
Apogee altitude
1,361.126 km
Perigee altitude
815.009 km
Semi-major axis
7,466.205 km
Eccentricity
0.03657
Inclination
63.3838°
RAAN
10.36°
Arg. of periapsis
13.2658°
True anomaly
346.83824°
Mean anomaly
347.7676°
Eccentric anomaly
347.30718°
Mean motion
3.36429 °/min
Orbital period
107.01 mins
BSTAR
0.000021839
Loading maneuver chart data...
Computing Atmospheric mass density...
Loading historical data...
Loading historical data...
Loading historical data...
Loading historical data...
Loading historical data...
Loading historical data...
Loading historical data...

Documentation

Showing up to 5 results
|